Tiempo cada hora Aberfoyle

Hoy, 29 Octubre, Jueves

Tiempo Temperatura Precipitaciones Viento Presión Humedad
00:00 +5°C° 0.4 mm 4 mps 724 mmHg 90%
01:00 +5°C° 0 mm 3 mps 724 mmHg 91%
02:00 +4°C° 0 mm 3 mps 725 mmHg 91%
03:00 +4°C° 0 mm 3 mps 725 mmHg 92%
04:00 +4°C° 0 mm 2 mps 726 mmHg 92%
05:00 +4°C° 0 mm 2 mps 727 mmHg 92%
06:00 +3°C° 0 mm 2 mps 727 mmHg 92%
07:00 +4°C° 0 mm 2 mps 727 mmHg 92%
08:00 +4°C° 0 mm 2 mps 727 mmHg 92%
09:00 +5°C° 0 mm 2 mps 727 mmHg 92%
10:00 +5°C° 1.3 mm 2 mps 726 mmHg 94%
11:00 +5°C° 1.3 mm 2 mps 726 mmHg 96%
12:00 +5°C° 1.3 mm 2 mps 725 mmHg 97%
13:00 +6°C° 2.5 mm 2 mps 724 mmHg 98%
14:00 +6°C° 2.5 mm 2 mps 724 mmHg 98%
15:00 +7°C° 2.5 mm 1 mps 723 mmHg 98%
16:00 +7°C° 2.8 mm 2 mps 723 mmHg 98%
17:00 +7°C° 2.8 mm 2 mps 722 mmHg 98%
18:00 +8°C° 2.8 mm 2 mps 722 mmHg 98%
19:00 +9°C° 1.4 mm 3 mps 723 mmHg 97%
20:00 +10°C° 1.4 mm 4 mps 723 mmHg 97%
21:00 +10°C° 1.4 mm 5 mps 724 mmHg 96%
22:00 +12°C° 0.4 mm 5 mps 724 mmHg 96%
23:00 +12°C° 0.4 mm 5 mps 724 mmHg 96%

Mañana, 30 Octubre, Viernes

Tiempo Temperatura Precipitaciones Viento Presión Humedad
00:00 +12°C° 0.4 mm 5 mps 724 mmHg 95%
01:00 +12°C° 0.8 mm 5 mps 724 mmHg 95%
02:00 +12°C° 0.8 mm 5 mps 724 mmHg 96%
03:00 +12°C° 0.8 mm 5 mps 725 mmHg 96%
04:00 +12°C° 0.2 mm 5 mps 725 mmHg 95%
05:00 +12°C° 0.2 mm 5 mps 725 mmHg 95%
06:00 +12°C° 0.2 mm 5 mps 726 mmHg 94%
07:00 +11°C° 0.2 mm 4 mps 726 mmHg 93%
08:00 +11°C° 0.2 mm 4 mps 727 mmHg 92%
09:00 +10°C° 0.2 mm 3 mps 728 mmHg 91%
10:00 +10°C° 0 mm 3 mps 729 mmHg 88%
11:00 +10°C° 0 mm 4 mps 730 mmHg 84%
12:00 +10°C° 0 mm 4 mps 730 mmHg 80%
13:00 +10°C° 0.1 mm 4 mps 731 mmHg 80%
14:00 +9°C° 0.1 mm 3 mps 732 mmHg 81%
15:00 +9°C° 0.1 mm 3 mps 732 mmHg 82%
16:00 +8°C° 0 mm 3 mps 733 mmHg 83%
17:00 +7°C° 0 mm 2 mps 733 mmHg 85%
18:00 +7°C° 0 mm 1 mps 733 mmHg 87%
19:00 +7°C° 0 mm 1 mps 734 mmHg 87%
20:00 +7°C° 0 mm 1 mps 734 mmHg 87%
21:00 +6°C° 0 mm 1 mps 734 mmHg 87%
22:00 +6°C° 0 mm 1 mps 734 mmHg 87%
23:00 +5°C° 0 mm 0 mps 734 mmHg 87%

Pasado mañana, 31 Octubre, Sábado

Tiempo Temperatura Precipitaciones Viento Presión Humedad
00:00 +5°C° 0 mm 0 mps 734 mmHg 88%
01:00 +5°C° 0 mm 0 mps 734 mmHg 88%
02:00 +5°C° 0 mm 0 mps 734 mmHg 89%
03:00 +4°C° 0 mm 0 mps 734 mmHg 90%
04:00 +4°C° 0 mm 0 mps 733 mmHg 90%
05:00 +5°C° 0 mm 1 mps 732 mmHg 91%
06:00 +5°C° 0 mm 1 mps 732 mmHg 91%
07:00 +6°C° 0.2 mm 1 mps 731 mmHg 91%
08:00 +5°C° 0.2 mm 2 mps 730 mmHg 91%
09:00 +5°C° 0.2 mm 2 mps 729 mmHg 91%
10:00 +5°C° 1.2 mm 2 mps 728 mmHg 93%
11:00 +5°C° 1.2 mm 2 mps 727 mmHg 94%
12:00 +5°C° 1.2 mm 2 mps 727 mmHg 96%
13:00 +6°C° 1.4 mm 1 mps 726 mmHg 96%
14:00 +6°C° 1.4 mm 1 mps 726 mmHg 96%
15:00 +5°C° 1.4 mm 0 mps 726 mmHg 97%
16:00 +6°C° 0.7 mm 1 mps 726 mmHg 97%
17:00 +6°C° 0.7 mm 1 mps 726 mmHg 98%
18:00 +6°C° 0.7 mm 1 mps 725 mmHg 98%
19:00 +6°C° 0.2 mm 1 mps 725 mmHg 98%
20:00 +7°C° 0.2 mm 1 mps 724 mmHg 98%
21:00 +7°C° 0.2 mm 1 mps 724 mmHg 98%
22:00 +7°C° 0.1 mm 1 mps 722 mmHg 97%
23:00 +6°C° 0.1 mm 2 mps 721 mmHg 97%

1 Noviembre, Domingo

Tiempo Temperatura Precipitaciones Viento Presión Humedad
00:00 +6°C° 0.1 mm 2 mps 720 mmHg 97%
01:00 +6°C° 1.4 mm 2 mps 718 mmHg 97%
02:00 +6°C° 1.4 mm 2 mps 716 mmHg 97%
03:00 +5°C° 1.4 mm 3 mps 714 mmHg 98%
04:00 +6°C° 3.2 mm 2 mps 712 mmHg 98%
05:00 +6°C° 3.2 mm 2 mps 711 mmHg 98%
06:00 +7°C° 3.2 mm 1 mps 710 mmHg 98%
07:00 +6°C° 0.2 mm 4 mps 711 mmHg 92%
08:00 +5°C° 0.2 mm 7 mps 712 mmHg 87%
09:00 +5°C° 0.2 mm 10 mps 712 mmHg 81%
10:00 +5°C° 0.2 mm 10 mps 714 mmHg 79%
11:00 +5°C° 0.2 mm 10 mps 715 mmHg 76%
12:00 +5°C° 0.2 mm 10 mps 716 mmHg 74%
13:00 +5°C° 0.2 mm 9 mps 717 mmHg 75%
14:00 +5°C° 0.2 mm 9 mps 718 mmHg 77%
15:00 +4°C° 0.2 mm 8 mps 718 mmHg 79%
16:00 +4°C° 0.3 mm 7 mps 719 mmHg 81%
17:00 +4°C° 0.3 mm 7 mps 719 mmHg 83%
18:00 +4°C° 0.3 mm 6 mps 719 mmHg 84%
19:00 +3°C° 0.1 mm 5 mps 720 mmHg 86%
20:00 +4°C° 0.1 mm 4 mps 720 mmHg 87%
21:00 +4°C° 0.1 mm 3 mps 720 mmHg 89%
22:00 +3°C° 0 mm 3 mps 720 mmHg 90%
23:00 +4°C° 0 mm 2 mps 720 mmHg 91%

2 Noviembre, Lunes

Tiempo Temperatura Precipitaciones Viento Presión Humedad
00:00 +4°C° 0 mm 2 mps 720 mmHg 92%
01:00 +4°C° 0 mm 2 mps 720 mmHg 92%
02:00 +4°C° 0 mm 2 mps 720 mmHg 93%
03:00 +5°C° 0 mm 1 mps 720 mmHg 94%
04:00 +5°C° 0.1 mm 1 mps 720 mmHg 94%
05:00 +4°C° 0.1 mm 1 mps 720 mmHg 94%
06:00 +4°C° 0.1 mm 1 mps 720 mmHg 95%
07:00 +5°C° 0.1 mm 1 mps 720 mmHg 94%
08:00 +4°C° 0.1 mm 2 mps 720 mmHg 93%
09:00 +4°C° 0.1 mm 2 mps 719 mmHg 93%
10:00 +4°C° 0.1 mm 3 mps 720 mmHg 87%
11:00 +5°C° 0.1 mm 5 mps 720 mmHg 82%
12:00 +5°C° 0.1 mm 6 mps 720 mmHg 77%
13:00 +5°C° 0.2 mm 6 mps 720 mmHg 77%
14:00 +6°C° 0.2 mm 5 mps 719 mmHg 78%
15:00 +6°C° 0.2 mm 5 mps 719 mmHg 79%
16:00 +5°C° 1 mm 5 mps 719 mmHg 83%
17:00 +5°C° 1 mm 5 mps 719 mmHg 87%
18:00 +4°C° 1 mm 6 mps 719 mmHg 90%
19:00 +4°C° 0.2 mm 6 mps 720 mmHg 89%
20:00 +5°C° 0.2 mm 5 mps 720 mmHg 88%
21:00 +5°C° 0.2 mm 5 mps 720 mmHg 87%
22:00 +5°C° 0.3 mm 5 mps 720 mmHg 88%
23:00 +5°C° 0.3 mm 5 mps 720 mmHg 88%

3 Noviembre, Martes

Tiempo Temperatura Precipitaciones Viento Presión Humedad
00:00 +6°C° 0.3 mm 5 mps 720 mmHg 89%
01:00 +6°C° 0.3 mm 5 mps 720 mmHg 89%
02:00 +6°C° 0.3 mm 5 mps 720 mmHg 89%
03:00 +6°C° 0.3 mm 4 mps 720 mmHg 89%
04:00 +6°C° 0.4 mm 4 mps 721 mmHg 90%
05:00 +5°C° 0.4 mm 4 mps 721 mmHg 90%
06:00 +5°C° 0.4 mm 4 mps 722 mmHg 91%
07:00 +6°C° 0.2 mm 4 mps 722 mmHg 91%
08:00 +6°C° 0.2 mm 4 mps 723 mmHg 91%
09:00 +6°C° 0.2 mm 4 mps 724 mmHg 91%
10:00 +7°C° 0.3 mm 3 mps 725 mmHg 91%
11:00 +7°C° 0.3 mm 3 mps 726 mmHg 91%
12:00 +8°C° 0.3 mm 2 mps 727 mmHg 91%
13:00 +8°C° 0.8 mm 2 mps 728 mmHg 91%
14:00 +8°C° 0.8 mm 2 mps 729 mmHg 91%
15:00 +8°C° 0.8 mm 2 mps 729 mmHg 91%
16:00 +7°C° 0.2 mm 2 mps 731 mmHg 92%
17:00 +6°C° 0.2 mm 2 mps 732 mmHg 92%
18:00 +5°C° 0.2 mm 2 mps 733 mmHg 93%
19:00 +5°C° 0 mm 2 mps 735 mmHg 93%
20:00 +5°C° 0 mm 2 mps 736 mmHg 92%
21:00 +5°C° 0 mm 2 mps 738 mmHg 92%
22:00 +5°C° 0 mm 2 mps 739 mmHg 92%
23:00 +4°C° 0 mm 2 mps 740 mmHg 92%
Mostrar más

Necesitamos Su Consentimiento

Meteoprog y nuestros Proveedores de Servicios pueden almacenar y acceder a sus datos personales como cookies, identificadores de dispositivo u otras tecnologías similares de su dispositivo y procesar dichos datos para personalizar contenido y anuncios, además de ofrecer funciones de redes sociales y analizar el tráfico.

  • Almacenar y/o acceder a información en su dispositivo

    Se puede almacenar o acceder a cookies, identificadores de dispositivo u otra información de su dispositivo para los fines anteriormente indicados.

  • Anuncios y contenido personalizados, medición de anuncios y contenido, percepciones del público, y desarrollo de productos

    Los anuncios y el contenido pueden personalizarse en base a su perfil. Se pueden añadir más datos para personalizar mejor los anuncios y contenidos. Se puede medir el rendimiento de los anuncios y contenidos. Se puede obtener la percepción sobre el público que ha visto los anuncios y contenidos. Dichos datos pueden usarse para desarrollar o mejorar la experiencia del usuario, sistemas y software.

Al hacer clic en ‘Estoy De Acuerdo’ usted permitirá el uso de las cookies, identificadores de dispositivo, balizas web u otras tecnologías similares indicadas. Su configuración puede cambiarse desde el navegador de su dispositivo.

Para ciertos fines, los intereses legítimos pueden ser considerados por encima del consentimiento. Puede leer más sobre ello en nuestra Política de Privacidad y Cookies.